Powrót do katalogu

SAMSON 1

AktywnyNaukaSSO
NORAD 47937·PAYLOAD·🇮🇱 Israel
Ta nazwa satelity nie została jeszcze potwierdzona przez oficjalne źródła.

Wystrzelony Mar 22, 2021 z Baikonur Cosmodrome

Loading…

Następne Przeloty (najbliższe 24 godziny)

TLE

ŚwieżeSource: Space-Track

Epoka: Sep 14, 2026, 15:14 UTC

1 47937U 21022F   26257.63485200  .00006989  00000-0  21253-3 0  9995
2 47937  97.3767 158.2776 0011022 124.5364 235.6921 15.34292305303422

Śledź SAMSON 1 w czasie rzeczywistym z AllMySat

Download on the App Store